Regional Weather Roundup
Issued by NWS

Home | Current Version | Previous Version | Text Only | Print | Product List | Glossary Off
Versions: 1 2 3 4 5 6 7 8 9 10 11 12 13 14 15 16 17 18 19 20 21 22 23 24 25 26 27 28 29 30 31 32 33 34 35 36 37 38 39 40 41 42 43 44 45 46 47 48 49 50

000
ASUS43 KMKX 251711
RWRWI

WISCONSIN REGIONAL WEATHER ROUNDUP
NATIONAL WEATHER SERVICE MILWAUKEE/SULLIVAN WI
1100 AM CST THU DEC 25 2014

NOTE: "FAIR" INDICATES FEW OR NO CLOUDS BELOW 12,000 FEET WITH NO
SIGNIFICANT WEATHER AND/OR OBSTRUCTIONS TO VISIBILITY.

WIZ001-002-006>008-014>016-023>028-251800-
NORTHWEST WISCONSIN

CITY           SKY/WX    TMP DP  RH WIND       PRES   REMARKS
SUPERIOR ARPT  CLOUDY    32  30  90 W9        29.71R WCI  25
ASHLAND        CLOUDY    33  28  81 SW7       29.70R WCI  27
HAYWARD        CLOUDY    31  26  82 SW12      29.71R WCI  22
SIREN          CLOUDY    32  28  86 SW8       29.73R WCI  25
CUMBERLAND     CLOUDY    30  28  93 SW14      29.73R WCI  20
RICE LAKE      CLOUDY    31  27  86 S8        29.76R WCI  24
CHETEK         CLOUDY    31  27  86 S7        29.75S WCI  24
LADYSMITH      CLOUDY    32  28  84 SW12      29.76R WCI  23
EAU CLAIRE     CLOUDY    32  26  78 SW10      29.77R WCI  24
MENOMONIE      CLOUDY    32  28  86 S6        29.78R WCI  27
NEW RICHMOND   CLOUDY    32  30  92 S6        29.75R WCI  26
OSCEOLA        CLOUDY    32  31  96 S7        29.78R WCI  26
$$

WIZ003>005-009-010-017-018-251800-
NORTH CENTRAL WISCONSIN

CITY           SKY/WX    TMP DP  RH WIND       PRES   REMARKS
MANITOWISH WTR CLOUDY    30  29  94 SW10      29.67S WCI  21
ARBOR VITAE    CLOUDY    32  29  88 SW6       29.69R WCI  26
WOODRUFF       CLOUDY    32  29  88 SW6       29.69R WCI  26
RHINELANDER    CLOUDY    30  27  88 SW12      29.72R WCI  20
EAGLE RIVER    CLOUDY    31  29  93 SW10      29.69R WCI  22
LAND O LAKES   CLOUDY    32  29  90 SW12      29.68R WCI  23
PHILLIPS       CLOUDY    30  27  88 SW9       29.70S WCI  22
TOMAHAWK       CLOUDY    31  27  86 CALM      29.73R
MEDFORD        CLOUDY    29  26  88 SW9       29.74R WCI  21
MERRILL        CLOUDY    31  28  88 SW12G20   29.75R WCI  22
$$

WIZ029-030-035-036-043>047-251800-
CENTRAL WISCONSIN

CITY           SKY/WX    TMP DP  RH WIND       PRES   REMARKS
WAUSAU         CLOUDY    31  26  82 SW12      29.76R WCI  22
MOSINEE        CLOUDY    30  28  93 SW15      29.78R WCI  19
MARSHFIELD     CLOUDY    31  26  82 SW12      29.77R WCI  22
STEVENS POINT  CLOUDY    30  26  85 SW12      29.80R WCI  20
WAUPACA        CLOUDY    35  28  78 SW9       29.82R WCI  27
WAUTOMA        CLOUDY    33  29  86 SW13      29.84R WCI  24
WISC RAPIDS    CLOUDY    32  26  78 S10       29.81R WCI  24
CAMP DOUGLAS   CLOUDY    33  33  99 VRB5      29.82S WCI  28
$$

WIZ011>013-019>022-031-037>040-048>050-251800-
NORTHEAST WISCONSIN

CITY           SKY/WX    TMP DP  RH WIND       PRES   REMARKS
ANTIGO         CLOUDY    30  27  88 SW12      29.74R WCI  21
SHAWANO        CLOUDY    36  29  78 SW9       29.79R WCI  29
OCONTO         CLOUDY    34  30  85 SW12G18   29.79R WCI  25
STURGEON BAY   CLOUDY    34  27  75 SW15G23   29.80R WCI  24
GREEN BAY      CLOUDY    34  29  82 SW12      29.82R WCI  25
MANITOWOC      CLOUDY    35  29  78 SW18      29.83R WCI  24
APPLETON       CLOUDY    34  30  86 SW17      29.82R WCI  23
CLINTONVILLE   CLOUDY    34  30  86 SW13      29.80R WCI  25
OSHKOSH        CLOUDY    34  27  75 SW14G21   29.83R WCI  25
$$

WIZ032>034-041-042-053>061-251800-
SOUTHWEST WISCONSIN

CITY           SKY/WX    TMP DP  RH WIND       PRES   REMARKS
LA CROSSE      CLOUDY    35  28  75 S15       29.81S WCI  25
SPARTA         CLOUDY    33  28  81 S7        29.82S WCI  27
VIROQUA        CLOUDY    32  32 100 S10       29.81S WCI  23
BOSCOBEL       CLOUDY    37  29  72 S9        29.86R WCI  30
PRAIRIE DU CHI CLOUDY    36  29  75 CALM      29.84F
PLATTEVILLE    PTSUNNY   35  32  88 S13       29.88R WCI  26
$$

WIZ056-057-062-063-064-067-068-251800-
SOUTH CENTRAL WISCONSIN

CITY           SKY/WX    TMP DP  RH WIND       PRES   REMARKS
REEDSBURG      CLOUDY    32  29  86 SW9       29.84S WCI  24
BARABOO/DELLS  CLOUDY    32  28  83 SW12      29.84S WCI  23
LONE ROCK      CLOUDY    38  28  67 S12       29.87R WCI  30
MINERAL POINT  CLOUDY    36  32  87 S14       29.85S WCI  27
MADISON        CLOUDY    34  28  79 S16G22    29.87R WCI  24
MIDDLETON      CLOUDY    36  29  76 S15       29.86S WCI  26
WATERTOWN      CLOUDY    34  29  83 SW13G21   29.87F WCI  25
MONROE         PTSUNNY   34  32  93 SW14G21   29.88R WCI  24
JANESVILLE     CLOUDY    36  28  75 SW15      29.90S WCI  26
$$

WIZ051-052-058>065-066-070>072-251800-
SOUTHEAST WISCONSIN

CITY           SKY/WX    TMP DP  RH WIND       PRES   REMARKS
MILWAUKEE      PTSUNNY   36  26  67 SW20G25   29.90S WCI  25
WAUKESHA       CLOUDY    32  27  80 SW12G17   29.90R WCI  23
MILWAUKEE/TIMM CLOUDY    34  27  75 SW14G28   29.89R WCI  24
RACINE         CLOUDY    36  28  73 SW15G23   29.92R WCI  27
BURLINGTON     CLOUDY    34  28  79 SW15      29.90F WCI  24
KENOSHA        CLOUDY    36  28  73 W18G25    29.91S WCI  26
FOND DU LAC    CLOUDY    34  27  75 SW13G22   29.84S WCI  25
SHEBOYGAN      CLOUDY    35  28  75 SW18G25   29.84S WCI  24
WEST BEND      PTSUNNY   34  27  75 SW15G24   29.85F WCI  24
JUNEAU         CLOUDY    33  28  83 SW15G23   29.88R WCI  23
$$

LSZ147-162-251800-
LAKE SUPERIOR

STATION/POSITION TIME  TEMP    WIND        PRES    WAVE
                       AIR SEA DIR/SP/G            HT/PER
                 (UTC) (F)     (DEG/KT/KT) (MB)    (FT/S)
DEVILS ISLAND    1700   34     240/ 19/ 22 1005.4R
PORT WING        1600   34     240/  9/ 15 1005.4R
SAXON HARBOR     1600   35     220/  5/ 10 1005.4R
$$

LMZ867-665-643>646-251800-
LAKE MICHIGAN

STATION/POSITION TIME  TEMP    WIND        PRES    WAVE
                       AIR SEA DIR/SP/G            HT/PER
                 (UTC) (F)     (DEG/KT/KT) (MB)    (FT/S)
CHAMBERS ISLAND  1600   35     200/  7/ 16 1008.1R
NORTHPORT PIER   1600   35     230/  6/ 15 1007.5R
SISTER BAY       1613          240/ 18/ 23   N/A
ALGOMA LAKESHORE 1615          270/ 15/ 18   N/A
KEWAUNEE LAKESHO 1600   35     260/ 14/ 17 1008.4R
SHEBOYGAN LAKESH 1700   35 37  220/ 20/ 23 1011.4S
PORT WASHINGTON  1600   36     250/ 11/ 15 1012.2R
MILWAUKEE LAKESH 1600   34     260/ 17/ 24   N/A
KENOSHA   LAKESH 1700   36     240/ 13/ 22 1013.2S
$$

TC  - TEMPERATURE IN CELSIUS
VSB - VISIBILITY IN STATUTE MILES
WCI - WIND CHILL INDEX
HX  - HEAT INDEX




USA.gov is the U.S. government's official web portal to all federal, state and local government web resources and services.